Torna al catalogo

YZ-1 R/B

AttivoHEO
NORAD 41929·ROCKET BODY·🇨🇳 China

Lanciato Mar 30, 2015 da Xichang Satellite Launch Center

Loading…

Prossimi Passaggi (prossime 24 ore)

TLE

AggiornatoSource: Space-Track

Epoca: Sep 17, 2026, 02:35 UTC

1 41929U 15019C   26260.10783736 -.00000615  00000-0  00000-0 0  9995
2 41929  17.2225  81.4640 7012978 320.4724 358.4276  0.27923502 11024

Traccia YZ-1 R/B in tempo reale con AllMySat

Download on the App Store